Location: Old Broadwell Mill Observatory
(33.8015°N, 85.8137°W)
Time: 05:38:32
(UTC-05:00)

Gurwin Techsat 1B - Visible Passes

Search period start: 29 March 2015 00:00
Search period end: 08 April 2015 00:00
Orbit: 812 x 814 km, 98.5° (Epoch: 27 March)

Date Brightness Start Highest point End Pass type
(mag) Time Alt. Az. Time Alt. Az. Time Alt. Az.
29 Mar 10.9 03:11:51 10° NNE 03:13:21 19° NNE 03:13:21 19° NNE visible
30 Mar 11.2 02:49:21 10° NNE 02:50:29 16° NNE 02:50:29 16° NNE visible
30 Mar 10.6 04:30:16 10° NNW 04:31:42 15° NW 04:31:42 15° NW visible
31 Mar 11.5 02:27:12 10° NE 02:27:36 12° NE 02:27:36 12° NE visible
31 Mar 10.4 04:06:51 10° N 04:08:50 20° NNW 04:08:50 20° NNW visible
01 Apr 10.3 03:43:46 10° N 03:45:57 24° N 03:45:57 24° N visible
02 Apr 10.4 03:20:57 10° NNE 03:23:05 25° NNE 03:23:05 25° NNE visible
03 Apr 10.8 02:58:21 10° NNE 03:00:12 22° NNE 03:00:12 22° NNE visible
03 Apr 10.6 04:39:52 10° NNW 04:41:26 14° NW 04:41:26 14° NW visible
04 Apr 11.1 02:36:02 10° NE 02:37:20 16° NE 02:37:20 16° NE visible
04 Apr 10.3 04:16:12 10° NNW 04:18:33 21° NW 04:18:33 21° NW visible
05 Apr 11.5 02:14:10 10° NE 02:14:27 11° NE 02:14:27 11° NE visible
05 Apr 10.0 03:52:59 10° N 03:55:41 27° NNW 03:55:41 27° NNW visible
06 Apr 10.0 03:30:04 10° N 03:32:48 31° N 03:32:48 31° N visible
07 Apr 10.3 03:07:22 10° NNE 03:09:55 29° NNE 03:09:55 29° NNE visible
07 Apr 10.6 04:49:40 10° NW 04:51:08 13° NW 04:51:08 13° NW visible
